User: anonymous   Login
Location: San Martino di Castrozza
(46.2667°N, 11.8000°E)
Time: 00:46:52
(UTC+00:00)
Language:

Cosmos 1953 - Orbit

View from above orbital plane
View from above orbital plane
View from above satellite
View from above satellite

Ground track
Ground track

The orbit data is extracted from the following two-line orbital elements,

1 19210U 88050A   21337.51149956  .00001671  00000-0  11095-3 0  9994
2 19210  82.5178 251.2380 0014410  91.6200 268.6678 15.06512889802058
Epoch (UTC): 03 December 2021 12:16:33
Eccentricity: 0.0014410
inclination: 82.5178°
perigee height: 537 km
apogee height: 557 km
right ascension of ascending node: 251.2380°
argument of perigee: 91.6200°
revolutions per day: 15.06512889
mean anomaly at epoch: 268.6678°
orbit number at epoch: 80205

The dashed part of the orbit path shows where the satellite is in the earth's shadow,  

DLR